Hourly Data Report for October 08, 2014

All times are specified in Local Standard Time (LST). Add 1 hour to adjust for Daylight Saving Time where and when it is observed.

POND INLET A
NUNAVUT

72°41'22.000" N
77°58'08.000" W
61.60 m
2403206
71095
YIO

Download Data

Hourly Data (October 2014)
Hourly Data Report for October 8, 2014
Temp Definition
°C
Dew Point Temp Definition
°C
Rel Hum Definition
%
Wind Dir Definition
10's deg

Wind Spd Definition
km/h
Visibility Definition
km
Stn Press Definition
kPa
Hmdx Definition


Wind Chill Definition


Weather Definition


TIME
00:00 Legend Double Dagger -6.9 -8.1 91 16 21 16.1 102.27   -14 LegendNANA
01:00 Legend Double Dagger -7.2 -8.1 93 16 18 16.1 102.25   -14 LegendNANA
02:00 Legend Double Dagger -7.3 -8.0 95 15 18 16.1 102.24   -14 LegendNANA
03:00 Legend Double Dagger -7.2 -8.1 93 14 18 16.1 102.25   -14 LegendNANA
04:00 Legend Double Dagger -7.4 -7.9 96 16 21 12.9 102.24   -15 LegendNANA
05:00 Legend Double Dagger -7.1 -7.7 96 16 17 16.1 102.19   -14 LegendNANA
06:00 Legend Double Dagger -7.3 -8.1 94 16 21 16.1 102.18   -15 LegendNANA
07:00 Legend Double Dagger -7.3 -8.7 90 15 21 16.1 102.14   -15 LegendNANA
08:00 Legend Double Dagger -7.2 -8.7 89 15 22 16.1 102.14   -15 LegendNANA
09:00 Legend Double Dagger -6.7 -7.9 91 16 18 16.1 102.12   -13 LegendNANA
10:00 Legend Double Dagger -6.1 -7.5 90 15 13 16.1 102.08   -11 LegendNANA
11:00 Legend Double Dagger -6.5 -7.9 90 15 18 16.1 102.04   -13 LegendNANA
12:00 Legend Double Dagger -6.3 -8.0 88 15 18 16.1 102.00   -13 LegendNANA
13:00 Legend Double Dagger -6.1 -7.6 89 16 17 16.1 102.01   -12 LegendNANA
14:00 Legend Double Dagger -6.2 -7.9 88 15 21 16.1 101.98   -13 LegendNANA
15:00 Legend Double Dagger -6.1 -7.7 88 15 18 16.1 101.95   -13 LegendNANA
16:00 Legend Double Dagger -6.2 -7.9 88 15 21 16.1 101.92   -13 LegendNANA
17:00 Legend Double Dagger -6.3 -8.0 88 16 17 16.1 101.89   -13 LegendNANA
18:00 Legend Double Dagger -6.9 -8.6 88 15 21 16.1 101.86   -14 LegendNANA
19:00 Legend Double Dagger -7.1 -8.9 87 15 24 16.1 101.81   -15 LegendNANA
20:00 Legend Double Dagger -7.4 -9.2 87 15 24 16.1 101.75   -15 LegendNANA
21:00 Legend Double Dagger -7.0 -8.5 89 14 21 16.1 101.72   -14 LegendNANA
22:00 Legend Double Dagger -6.7 -8.1 90 15 18 16.1 101.67   -13 LegendNANA
23:00 Legend Double Dagger -6.6 -8.1 89 13 15 16.1 101.63   -13 LegendNANA

Notes on Data Quality.

Legend

  • E = Estimated
  • M = Missing
  • NA = Not Available
  • ‡ = Partner data that is not subject to review by the National Climate Archives
Date modified: